| time (UTC) | temp C | wind direction | speed KPH | gust KPH | rain 1hr cm | rain 24hr cm | rain mn cm | humidity % | barometer mb |
| 20260507133057 | 23 | 41 | 6.4 | 11.3 | 0.00 | 0.00 | 0.00 | 47 | 1010.8 |
| 20260507132040 | 25 | 297 | 3.2 | 8.0 | 0.00 | 0.00 | 0.00 | 50 | 1010.9 |
| 20260507131027 | 23 | 78 | 4.8 | 8.0 | 0.00 | 0.00 | 0.00 | 50 | 1010.9 |
| 20260507130111 | 24 | 3 | 3.2 | 8.0 | 0.00 | 0.00 | 0.00 | 50 | 1011.0 |
| 20260507125054 | 22 | 345 | 3.2 | 9.7 | 0.00 | 0.00 | 0.00 | 54 | 1011.1 |
| 20260507124100 | 22 | 59 | 4.8 | 8.0 | 0.00 | 0.00 | 0.00 | 52 | 1011.1 |
| 20260507123027 | 22 | 42 | 6.4 | 9.7 | 0.00 | 0.00 | 0.00 | 51 | 1011.2 |
| 20260507122113 | 22 | 13 | 4.8 | 8.0 | 0.00 | 0.00 | 0.00 | 53 | 1011.3 |
| 20260507121054 | 21 | 45 | 4.8 | 11.3 | 0.00 | 0.00 | 0.00 | 50 | 1011.5 |
| 20260507120035 | 20 | 349 | 4.8 | 11.3 | 0.00 | 0.00 | 0.00 | 51 | 1011.7 |
| 20260507115021 | 20 | 7 | 4.8 | 9.7 | 0.00 | 0.00 | 0.00 | 52 | 1011.8 |
| 20260507114123 | 20 | 12 | 8.0 | 14.5 | 0.00 | 0.00 | 0.00 | 52 | 1012.1 |
| 20260507113041 | 21 | 6 | 8.0 | 14.5 | 0.00 | 0.00 | 0.00 | 55 | 1011.9 |
| 20260507112030 | 21 | 30 | 6.4 | 14.5 | 0.00 | 0.00 | 0.00 | 58 | 1011.8 |
| 20260507111105 | 21 | 69 | 8.0 | 16.1 | 0.00 | 0.00 | 0.00 | 59 | 1012.0 |
| 20260507110050 | 21 | 16 | 4.8 | 11.3 | 0.00 | 0.00 | 0.00 | 55 | 1012.1 |
| 20260507105032 | 22 | 50 | 4.8 | 12.9 | 0.00 | 0.00 | 0.00 | 52 | 1012.0 |
| 20260507104116 | 24 | 341 | 6.4 | 17.7 | 0.00 | 0.00 | 0.00 | 42 | 1012.0 |
| 20260507103100 | 25 | 26 | 4.8 | 14.5 | 0.00 | 0.00 | 0.00 | 40 | 1011.8 |
| 20260507102044 | 25 | 22 | 6.4 | 12.9 | 0.00 | 0.00 | 0.00 | 40 | 1011.9 |
| 20260507101053 | 25 | 90 | 6.4 | 9.7 | 0.00 | 0.00 | 0.00 | 42 | 1011.9 |
| 20260507100018 | 23 | 3 | 3.2 | 8.0 | 0.00 | 0.00 | 0.00 | 45 | 1011.9 |
| 20260507095107 | 23 | 4 | 4.8 | 11.3 | 0.00 | 0.00 | 0.00 | 42 | 1012.1 |
| 20260507094053 | 22 | 359 | 4.8 | 11.3 | 0.00 | 0.00 | 0.00 | 48 | 1012.1 |
| 20260507093039 | 22 | 12 | 3.2 | 6.4 | 0.00 | 0.00 | 0.00 | 51 | 1012.1 |
| 20260507092027 | 22 | 67 | 4.8 | 12.9 | 0.00 | 0.00 | 0.00 | 48 | 1012.2 |
| 20260507091113 | 22 | 8 | 4.8 | 11.3 | 0.00 | 0.00 | 0.00 | 48 | 1012.2 |
| 20260507085122 | 22 | 34 | 3.2 | 6.4 | 0.00 | 0.00 | 0.00 | 55 | 1012.2 |
| 20260507084025 | 20 | 37 | 3.2 | 6.4 | 0.00 | 0.00 | 0.00 | 56 | 1012.2 |
| 20260507083108 | 20 | 52 | 4.8 | 6.4 | 0.00 | 0.00 | 0.00 | 60 | 1012.2 |
| 20260507082057 | 19 | 13 | 3.2 | 6.4 | 0.00 | 0.00 | 0.00 | 62 | 1012.2 |
| 20260507081039 | 19 | 26 | 4.8 | 9.7 | 0.00 | 0.00 | 0.00 | 62 | 1012.2 |
| 20260507080020 | 19 | 17 | 4.8 | 11.3 | 0.00 | 0.00 | 0.00 | 60 | 1012.2 |
| 20260507075124 | 21 | 3 | 4.8 | 11.3 | 0.00 | 0.00 | 0.00 | 58 | 1012.3 |
| 20260507074047 | 21 | 48 | 4.8 | 8.0 | 0.00 | 0.00 | 0.00 | 59 | 1012.0 |
| 20260507073024 | 20 | 42 | 3.2 | 11.3 | 0.00 | 0.00 | 0.00 | 61 | 1012.0 |
| 20260507072111 | 19 | 101 | 3.2 | 6.4 | 0.00 | 0.00 | 0.00 | 61 | 1011.9 |
| 20260507071058 | 19 | 42 | 1.6 | 6.4 | 0.00 | 0.00 | 0.00 | 56 | 1011.8 |
| 20260507070042 | 20 | 0.0 | 3.2 | 0.00 | 0.00 | 0.00 | 58 | 1011.7 | |
| 20260507065050 | 18 | 0.0 | 1.6 | 0.00 | 0.00 | 0.00 | 65 | 1011.6 | |
| 20260507064112 | 15 | 354 | 1.6 | 3.2 | 0.00 | 0.00 | 0.00 | 72 | 1011.6 |
| 20260507063100 | 13 | 314 | 1.6 | 3.2 | 0.00 | 0.00 | 0.00 | 72 | 1011.6 |
| 20260507062049 | 13 | 350 | 1.6 | 3.2 | 0.00 | 0.00 | 0.00 | 72 | 1011.5 |
| 20260507061036 | 13 | 324 | 1.6 | 3.2 | 0.00 | 0.00 | 0.00 | 71 | 1011.5 |
| 20260507060023 | 13 | 345 | 1.6 | 3.2 | 0.00 | 0.00 | 0.00 | 72 | 1011.5 |
| 20260507055106 | 13 | 315 | 0.0 | 3.2 | 0.00 | 0.00 | 0.00 | 73 | 1011.5 |
| 20260507054052 | 12 | 0.0 | 1.6 | 0.00 | 0.00 | 0.00 | 74 | 1011.4 | |
| 20260507053038 | 12 | 315 | 0.0 | 3.2 | 0.00 | 0.00 | 0.00 | 77 | 1011.4 |
| 20260507052139 | 11 | 315 | 1.6 | 3.2 | 0.00 | 0.00 | 0.00 | 77 | 1011.3 |
| 20260507051058 | 11 | 315 | 1.6 | 3.2 | 0.00 | 0.00 | 0.00 | 77 | 1011.1 |
| 20260507050046 | 11 | 306 | 4.8 | 6.4 | 0.00 | 0.00 | 0.00 | 79 | 1011.0 |
| 20260507045047 | 11 | 299 | 3.2 | 4.8 | 0.00 | 0.00 | 0.00 | 79 | 1010.9 |
| 20260507044112 | 11 | 315 | 4.8 | 6.4 | 0.00 | 0.00 | 0.00 | 80 | 1010.9 |
| 20260507043057 | 11 | 311 | 3.2 | 4.8 | 0.00 | 0.00 | 0.00 | 80 | 1010.8 |
| 20260507042045 | 11 | 310 | 3.2 | 4.8 | 0.00 | 0.00 | 0.00 | 81 | 1010.7 |
| 20260507041025 | 11 | 311 | 3.2 | 3.2 | 0.00 | 0.00 | 0.00 | 81 | 1010.8 |
| 20260507040150 | 11 | 342 | 3.2 | 3.2 | 0.00 | 0.00 | 0.00 | 81 | 1010.8 |
| 20260507035050 | 11 | 337 | 3.2 | 4.8 | 0.00 | 0.00 | 0.00 | 82 | 1010.8 |
| 20260507034037 | 11 | 324 | 4.8 | 6.4 | 0.00 | 0.00 | 0.00 | 81 | 1010.9 |
| 20260507033023 | 11 | 310 | 4.8 | 6.4 | 0.00 | 0.00 | 0.00 | 80 | 1011.1 |
| 20260507032107 | 11 | 341 | 3.2 | 6.4 | 0.00 | 0.00 | 0.00 | 80 | 1011.1 |
| 20260507031054 | 11 | 301 | 3.2 | 6.4 | 0.00 | 0.00 | 0.00 | 80 | 1011.2 |
| 20260507030041 | 11 | 321 | 4.8 | 6.4 | 0.00 | 0.00 | 0.00 | 80 | 1011.2 |
| 20260507025024 | 11 | 311 | 3.2 | 6.4 | 0.00 | 0.00 | 0.00 | 80 | 1011.3 |
| 20260507024111 | 12 | 293 | 3.2 | 6.4 | 0.00 | 0.00 | 0.00 | 79 | 1011.4 |
| 20260507023057 | 12 | 313 | 3.2 | 6.4 | 0.00 | 0.00 | 0.00 | 78 | 1011.3 |
| 20260507022042 | 12 | 310 | 3.2 | 6.4 | 0.00 | 0.00 | 0.00 | 78 | 1011.2 |
| 20260507021026 | 12 | 345 | 3.2 | 4.8 | 0.00 | 0.00 | 0.00 | 77 | 1011.3 |
| 20260507020114 | 12 | 314 | 3.2 | 6.4 | 0.00 | 0.00 | 0.00 | 75 | 1011.4 |
| 20260507015101 | 12 | 315 | 3.2 | 6.4 | 0.00 | 0.00 | 0.00 | 75 | 1011.4 |
| 20260507014045 | 12 | 315 | 3.2 | 6.4 | 0.00 | 0.00 | 0.00 | 74 | 1011.4 |
| 20260507013028 | 12 | 315 | 4.8 | 6.4 | 0.00 | 0.00 | 0.00 | 73 | 1011.4 |
| 20260507012108 | 12 | 312 | 1.6 | 3.2 | 0.00 | 0.00 | 0.00 | 73 | 1011.5 |
| 20260507011051 | 12 | 315 | 3.2 | 6.4 | 0.00 | 0.00 | 0.00 | 74 | 1011.5 |
| 20260507010038 | 12 | 302 | 3.2 | 4.8 | 0.00 | 0.00 | 0.00 | 77 | 1011.4 |
| 20260507005046 | 12 | 346 | 3.2 | 4.8 | 0.00 | 0.00 | 0.00 | 77 | 1011.5 |
| 20260507004105 | 12 | 320 | 1.6 | 4.8 | 0.00 | 0.00 | 0.00 | 75 | 1011.8 |
| 20260507003050 | 12 | 324 | 3.2 | 6.4 | 0.00 | 0.00 | 0.00 | 74 | 1011.7 |
| 20260507002059 | 12 | 351 | 4.8 | 6.4 | 0.00 | 0.00 | 0.00 | 75 | 1011.8 |
| 20260507001022 | 12 | 315 | 3.2 | 4.8 | 0.00 | 0.00 | 0.00 | 74 | 1011.9 |
| 20260507000107 | 12 | 323 | 3.2 | 4.8 | 0.00 | 0.00 | 0.00 | 74 | 1012.1 |
| 20260506235055 | 13 | 318 | 3.2 | 6.4 | 0.00 | 0.00 | 0.00 | 73 | 1012.1 |
| 20260506234040 | 13 | 327 | 3.2 | 4.8 | 0.00 | 0.00 | 0.00 | 73 | 1012.1 |
| 20260506233024 | 13 | 334 | 3.2 | 6.4 | 0.00 | 0.00 | 0.00 | 73 | 1012.3 |
| 20260506232112 | 13 | 312 | 4.8 | 6.4 | 0.00 | 0.00 | 0.00 | 74 | 1012.3 |
| 20260506231057 | 13 | 344 | 3.2 | 6.4 | 0.00 | 0.00 | 0.00 | 74 | 1012.2 |
| 20260506230044 | 13 | 306 | 3.2 | 4.8 | 0.00 | 0.00 | 0.00 | 74 | 1012.2 |
| 20260506225028 | 13 | 320 | 1.6 | 3.2 | 0.00 | 0.00 | 0.00 | 74 | 1012.2 |
| 20260506224127 | 13 | 315 | 3.2 | 4.8 | 0.00 | 0.00 | 0.00 | 74 | 1012.3 |
| 20260506223053 | 14 | 312 | 3.2 | 4.8 | 0.00 | 0.00 | 0.00 | 74 | 1012.3 |
| 20260506222039 | 14 | 338 | 1.6 | 6.4 | 0.00 | 0.00 | 0.00 | 74 | 1012.4 |
| 20260506221027 | 15 | 345 | 1.6 | 4.8 | 0.00 | 0.00 | 0.00 | 73 | 1012.4 |
| 20260506220114 | 15 | 335 | 1.6 | 3.2 | 0.00 | 0.00 | 0.00 | 73 | 1012.4 |
| 20260506215122 | 15 | 319 | 1.6 | 4.8 | 0.00 | 0.00 | 0.00 | 72 | 1012.4 |
| 20260506214049 | 15 | 333 | 1.6 | 3.2 | 0.00 | 0.00 | 0.00 | 72 | 1012.4 |
| 20260506213036 | 15 | 315 | 0.0 | 3.2 | 0.00 | 0.00 | 0.00 | 71 | 1012.4 |
| 20260506212113 | 16 | 0.0 | 1.6 | 0.00 | 0.00 | 0.00 | 70 | 1012.3 | |
| 20260506211103 | 16 | 0.0 | 1.6 | 0.00 | 0.00 | 0.00 | 70 | 1012.3 | |
| 20260506210029 | 16 | 68 | 0.0 | 3.2 | 0.00 | 0.00 | 0.00 | 70 | 1012.2 |
| 20260506205113 | 16 | 60 | 0.0 | 3.2 | 0.00 | 0.00 | 0.00 | 70 | 1011.9 |
| 20260506204047 | 16 | 90 | 0.0 | 3.2 | 0.00 | 0.00 | 0.00 | 70 | 1011.8 |
| 20260506203033 | 16 | 45 | 0.0 | 3.2 | 0.00 | 0.00 | 0.00 | 70 | 1011.7 |
| 20260506202138 | 16 | 23 | 0.0 | 3.2 | 0.00 | 0.00 | 0.00 | 69 | 1011.7 |
| 20260506201059 | 16 | 326 | 0.0 | 3.2 | 0.00 | 0.00 | 0.00 | 69 | 1011.6 |
| 20260506200042 | 16 | 315 | 0.0 | 3.2 | 0.00 | 0.00 | 0.00 | 68 | 1011.5 |
| 20260506195028 | 17 | 255 | 0.0 | 3.2 | 0.00 | 0.00 | 0.00 | 68 | 1011.3 |
| 20260506194113 | 17 | 344 | 0.0 | 3.2 | 0.00 | 0.00 | 0.00 | 67 | 1011.2 |
| 20260506193059 | 17 | 0 | 0.0 | 3.2 | 0.00 | 0.00 | 0.00 | 67 | 1011.1 |
| 20260506192047 | 17 | 26 | 1.6 | 3.2 | 0.00 | 0.00 | 0.00 | 65 | 1011.0 |
| 20260506191054 | 17 | 328 | 1.6 | 6.4 | 0.00 | 0.00 | 0.00 | 61 | 1010.9 |
| 20260506190019 | 18 | 330 | 1.6 | 3.2 | 0.00 | 0.00 | 0.00 | 60 | 1010.9 |
| 20260506185107 | 18 | 356 | 3.2 | 6.4 | 0.00 | 0.00 | 0.00 | 56 | 1010.7 |
| 20260506184054 | 20 | 335 | 3.2 | 4.8 | 0.00 | 0.00 | 0.00 | 54 | 1010.6 |
| 20260506183040 | 20 | 333 | 1.6 | 4.8 | 0.00 | 0.00 | 0.00 | 53 | 1010.6 |
| 20260506182048 | 19 | 339 | 3.2 | 6.4 | 0.00 | 0.00 | 0.00 | 54 | 1010.5 |
| 20260506181114 | 20 | 297 | 1.6 | 4.8 | 0.00 | 0.00 | 0.00 | 53 | 1010.4 |
| 20260506180100 | 21 | 270 | 4.8 | 12.9 | 0.00 | 0.00 | 0.00 | 52 | 1010.2 |
| 20260506175127 | 20 | 287 | 1.6 | 6.4 | 0.00 | 0.00 | 0.00 | 53 | 1010.3 |
| 20260506174030 | 20 | 355 | 3.2 | 8.0 | 0.00 | 0.00 | 0.00 | 52 | 1010.2 |
| 20260506173117 | 20 | 287 | 3.2 | 8.0 | 0.00 | 0.00 | 0.00 | 52 | 1010.1 |
| 20260506172105 | 20 | 226 | 3.2 | 9.7 | 0.00 | 0.00 | 0.00 | 52 | 1010.2 |
| 20260506171053 | 20 | 326 | 3.2 | 6.4 | 0.00 | 0.00 | 0.00 | 51 | 1010.3 |
| 20260506170039 | 21 | 306 | 4.8 | 6.4 | 0.00 | 0.00 | 0.00 | 50 | 1010.4 |
| 20260506165023 | 21 | 349 | 4.8 | 9.7 | 0.00 | 0.00 | 0.00 | 50 | 1010.5 |
| 20260506164123 | 21 | 341 | 4.8 | 8.0 | 0.00 | 0.00 | 0.00 | 51 | 1010.5 |
| 20260506163108 | 20 | 38 | 3.2 | 6.4 | 0.00 | 0.00 | 0.00 | 50 | 1010.4 |
| 20260506162034 | 21 | 278 | 4.8 | 12.9 | 0.00 | 0.00 | 0.00 | 47 | 1010.5 |
| 20260506161041 | 22 | 224 | 4.8 | 12.9 | 0.00 | 0.00 | 0.00 | 47 | 1010.3 |
| 20260506160109 | 22 | 331 | 6.4 | 12.9 | 0.00 | 0.00 | 0.00 | 46 | 1010.2 |
| 20260506155056 | 22 | 149 | 4.8 | 9.7 | 0.00 | 0.00 | 0.00 | 43 | 1010.3 |
| 20260506154042 | 22 | 59 | 6.4 | 9.7 | 0.00 | 0.00 | 0.00 | 43 | 1010.3 |
| 20260506153030 | 22 | 266 | 4.8 | 11.3 | 0.00 | 0.00 | 0.00 | 44 | 1010.2 |
| 20260506152137 | 22 | 345 | 6.4 | 12.9 | 0.00 | 0.00 | 0.00 | 49 | 1010.2 |
| 20260506151105 | 21 | 345 | 4.8 | 14.5 | 0.00 | 0.00 | 0.00 | 53 | 1010.2 |
| 20260506150051 | 20 | 356 | 4.8 | 8.0 | 0.00 | 0.00 | 0.00 | 53 | 1010.3 |
| 20260506145038 | 20 | 61 | 4.8 | 11.3 | 0.00 | 0.00 | 0.00 | 53 | 1010.6 |
| 20260506144023 | 21 | 275 | 6.4 | 12.9 | 0.00 | 0.00 | 0.00 | 53 | 1010.6 |
| 20260506143110 | 21 | 322 | 4.8 | 11.3 | 0.00 | 0.00 | 0.00 | 53 | 1010.5 |
| 20260506142053 | 21 | 279 | 4.8 | 11.3 | 0.00 | 0.00 | 0.00 | 53 | 1010.6 |
| 20260506141100 | 21 | 301 | 6.4 | 11.3 | 0.00 | 0.00 | 0.00 | 52 | 1010.8 |
| 20260506140024 | 21 | 252 | 6.4 | 12.9 | 0.00 | 0.00 | 0.00 | 53 | 1010.7 |
| 20260506135108 | 21 | 199 | 6.4 | 9.7 | 0.00 | 0.00 | 0.00 | 53 | 1010.8 |
| 20260506134054 | 21 | 350 | 6.4 | 12.9 | 0.00 | 0.00 | 0.00 | 52 | 1010.7 |